This demonstration page uses our WeatherBlox Daily Observations layout. Learn more.

40.92945, -100.16068

Hourly Observations for January 22, 2015

Temp ( °F °C ) Dew Point ( °F °C ) Humidity (%) Winds ( mph kmh ) Pressure ( in mb ) Visibility ( mi km ) Precip ( " mm )
12:15 am 00:15 Partly Cloudy 26 -3.3 20 -6.9 76 76 NNW 6 9 30.53 1034 10 16.0934 N/A
12:35 am 00:35 Partly Cloudy 24 -4.3 19 -7.3 80 80 NNW 6 9 30.5 1033 10 16.0934 N/A
12:55 am 00:55 Partly Cloudy 22 -5.3 18 -7.6 84 84 NW 7 11 30.53 1034 10 16.0934 N/A
1:15 am 01:15 Clear 21 -5.9 18 -8 85 85 NNW 6 9 30.53 1034 10 16.0934 N/A
1:35 am 01:35 Clear 21 -6.1 18 -7.7 89 89 NW 5 7 30.53 1034 10 16.0934 N/A
1:55 am 01:55 Clear 21 -6 18 -7.6 89 89 WNW 7 11 30.53 1034 10 16.0934 N/A
2:15 am 02:15 Clear 20 -6.6 17 -8.2 89 89 WNW 6 9 30.56 1035 10 16.0934 N/A
2:35 am 02:35 Clear 18 -7.6 15 -9.2 88 88 NW 8 13 30.59 1036 10 16.0934 N/A
2:55 am 02:55 Clear 19 -7.2 17 -8.3 92 92 NW 7 11 30.56 1035 10 16.0934 N/A
3:15 am 03:15 Clear 19 -7.1 17 -8.5 90 90 WNW 6 9 30.56 1035 10 16.0934 N/A
3:35 am 03:35 Clear 19 -7.4 16 -8.8 90 90 W 3 6 30.56 1035 10 16.0934 N/A
3:55 am 03:55 Clear 18 -8 15 -9.3 90 90 W 6 9 30.59 1036 10 16.0934 N/A
4:15 am 04:15 Clear 17 -8.5 14 -9.8 90 90 W 6 9 30.59 1036 10 16.0934 N/A
4:35 am 04:35 Clear 18 -8 15 -9.2 91 91 WNW 7 11 30.59 1036 10 16.0934 N/A
4:55 am 04:55 Clear 18 -7.6 16 -9 90 90 WNW 8 13 30.59 1036 10 16.0934 N/A
5:15 am 05:15 Clear 18 -7.7 16 -9.1 90 90 W 6 9 30.59 1036 10 16.0934 N/A
5:35 am 05:35 Clear 16 -8.7 14 -9.9 91 91 W 6 9 30.59 1036 10 16.0934 N/A
5:55 am 05:55 Clear 17 -8.5 15 -9.7 91 91 W 6 9 30.59 1036 10 16.0934 N/A
6:15 am 06:15 Clear 16 -8.7 14 -9.9 91 91 WSW 6 9 30.59 1036 10 16.0934 N/A
6:35 am 06:35 Clear 16 -9 14 -10 93 93 W 3 6 30.59 1036 10 16.0934 N/A
6:55 am 06:55 Clear 17 -8.6 14 -9.8 91 91 WSW 3 6 30.59 1036 10 16.0934 N/A
7:15 am 07:15 Partly Cloudy 17 -8.5 15 -9.7 91 91 Calm 30.59 1036 10 16.0934 N/A
7:35 am 07:35 Mostly Cloudy 16 -8.8 14 -10.1 90 90 Calm 30.59 1036 10 16.0934 N/A
7:55 am 07:55 Partly Cloudy 15 -9.5 13 -10.8 90 90 W 3 6 30.59 1036 10 16.0934 N/A
8:15 am 08:15 Mostly Cloudy 15 -9.3 13 -10.5 91 91 Calm 30.59 1036 10 16.0934 N/A
8:35 am 08:35 Cloudy 19 -7.2 17 -8.2 93 93 Calm 30.56 1035 10 16.0934 N/A
8:55 am 08:55 Mostly Cloudy 22 -5.5 20 -6.6 92 92 Calm 30.56 1035 10 16.0934 N/A
9:15 am 09:15 Sunny 23 -4.8 21 -6.1 91 91 Calm 30.56 1035 10 16.0934 N/A
9:35 am 09:35 Sunny 25 -4 22 -5.6 89 89 Calm 30.53 1034 10 16.0934 N/A
9:55 am 09:55 Sunny 27 -2.6 23 -4.8 85 85 Calm 30.53 1034 10 16.0934 N/A
10:15 am 10:15 Sunny 30 -1 25 -3.9 81 81 WSW 5 7 30.5 1033 10 16.0934 N/A
10:35 am 10:35 Sunny 32 0 25 -3.9 75 75 WSW 5 7 30.5 1033 10 16.0934 N/A
10:55 am 10:55 Sunny 34 1 25 -3.8 71 71 SW 9 15 30.5 1033 10 16.0934 N/A
11:15 am 11:15 Sunny 35 1.7 25 -4 66 66 SW 10 17 30.48 1032 10 16.0934 N/A
11:35 am 11:35 Sunny 36 2.2 25 -4.1 63 63 WSW 9 15 30.48 1032 10 16.0934 N/A
11:55 am 11:55 Sunny 37 2.6 24 -4.7 59 59 SW 8 13 30.48 1032 10 16.0934 N/A
12:15 pm 12:15 Sunny 38 3.1 23 -4.9 56 56 SW 8 13 30.45 1031 10 16.0934 N/A
12:35 pm 12:35 Sunny 38 3.6 23 -5 54 54 SW 9 15 30.42 1030 10 16.0934 N/A
12:55 pm 12:55 Sunny 39 3.9 22 -5.6 50 50 SW 9 15 30.42 1030 10 16.0934 N/A
2:35 pm 14:35 Sunny 41 5.2 22 -5.8 45 45 WSW 9 15 30.36 1028 10 16.0934 N/A
2:55 pm 14:55 Sunny 42 5.5 21 -6.1 43 43 WSW 8 13 30.36 1028 10 16.0934 N/A
3:15 pm 15:15 Sunny 43 6.1 20 -6.5 40 40 SW 10 17 30.3 1026 10 16.0934 N/A
3:35 pm 15:35 Sunny 43 5.9 19 -7.1 39 39 WSW 7 11 30.3 1026 10 16.0934 N/A
3:55 pm 15:55 Sunny 43 6 19 -7.5 38 38 WSW 8 13 30.3 1026 10 16.0934 N/A
4:15 pm 16:15 Sunny 43 6.1 18 -7.8 37 37 W 9 15 30.3 1026 10 16.0934 N/A
4:35 pm 16:35 Sunny 43 6 17 -8.2 36 36 WSW 7 11 30.3 1026 10 16.0934 N/A
4:55 pm 16:55 Sunny 42 5.5 18 -7.9 38 38 WSW 6 9 30.3 1026 10 16.0934 N/A
5:15 pm 17:15 Sunny 40 4.2 18 -7.8 42 42 SW 6 9 30.33 1027 10 16.0934 N/A
5:35 pm 17:35 Sunny 37 2.9 19 -7.4 47 47 SW 7 11 30.3 1026 10 16.0934 N/A
5:55 pm 17:55 Clear 34 1.2 18 -7.6 52 52 SSW 6 9 30.33 1027 10 16.0934 N/A
6:15 pm 18:15 Clear 32 0.1 18 -7.7 56 56 S 7 11 30.33 1027 10 16.0934 N/A
6:35 pm 18:35 Clear 31 -0.6 19 -7.5 60 60 S 8 13 30.36 1028 10 16.0934 N/A
6:55 pm 18:55 Clear 30 -1.3 19 -7.4 64 64 S 7 11 30.36 1028 10 16.0934 N/A
7:15 pm 19:15 Clear 29 -1.6 19 -7.1 66 66 S 7 11 30.36 1028 10 16.0934 N/A
7:35 pm 19:35 Clear 28 -2.4 19 -7.4 69 69 S 8 13 30.36 1028 10 16.0934 N/A
7:55 pm 19:55 Clear 28 -2.4 19 -7.1 70 70 S 8 13 30.36 1028 10 16.0934 N/A
8:15 pm 20:15 Clear 26 -3.5 19 -7.5 74 74 S 8 13 30.36 1028 10 16.0934 N/A
8:35 pm 20:35 Clear 28 -2.2 20 -6.7 72 72 S 8 13 30.36 1028 10 16.0934 N/A
8:55 pm 20:55 Clear 27 -2.7 20 -6.8 74 74 S 9 15 30.36 1028 10 16.0934 N/A
9:15 pm 21:15 Clear 29 -1.8 21 -6.2 72 72 S 8 13 30.36 1028 10 16.0934 N/A
9:35 pm 21:35 Clear 28 -2.5 20 -6.5 74 74 S 9 15 30.36 1028 10 16.0934 N/A
9:55 pm 21:55 Clear 28 -2.5 20 -6.8 73 73 S 10 17 30.36 1028 10 16.0934 N/A
10:15 pm 22:15 Clear 27 -3 19 -7 74 74 S 9 15 30.36 1028 10 16.0934 N/A
10:35 pm 22:35 Clear 26 -3.5 19 -7 77 77 S 7 11 30.36 1028 10 16.0934 N/A
10:55 pm 22:55 Clear 26 -3.3 19 -7 76 76 S 9 15 30.33 1027 10 16.0934 N/A
11:15 pm 23:15 Clear 26 -3.2 19 -7.1 75 75 S 9 15 30.33 1027 10 16.0934 N/A
11:35 pm 23:35 Clear 25 -3.9 19 -7.3 78 78 S 7 11 30.36 1028 10 16.0934 N/A
11:55 pm 23:55 Clear 24 -4.4 18 -7.6 79 79 SSW 3 6 30.36 1028 10 16.0934 N/A

Powered by AerisWeather